START_TIME,STEP,MOV.,M15,t_acc.,M20,t_acc.
1979-07-29 12:00:43.010 ,0,0,0.,24.0,0.,24.0
1979-07-29 12:01:07.010 ,1,1,0.,24.0,0.,24.0
1979-07-29 12:01:31.010 ,1,0,0.,24.0,0.,24.0
1979-07-29 12:01:55.010 ,2,1,0.,24.0,0.,24.0
1979-07-29 12:02:19.010 ,2,0,0.,24.0,0.,24.0
1979-07-29 12:02:43.010 ,3,1,0.,24.0,0.,24.0
1979-07-29 12:03:07.010 ,3,0,0.,24.0,0.,24.0
1979-07-29 12:03:31.010 ,4,1,0.,24.0,0.,24.0
1979-07-29 12:03:55.010 ,4,0,0.,24.0,0.,24.0
1979-07-29 12:04:19.010 ,5,1,0.,24.0,0.,24.0
1979-07-29 12:04:43.010 ,5,0,0.,24.0,0.,24.0
1979-07-29 12:05:07.010 ,6,1,0.,24.0,0.,24.0
1979-07-29 12:05:55.010 ,7,1,0.,24.0,0.,24.0
1979-07-29 12:06:19.010 ,7,0,0.,24.0,0.,24.0
1979-07-29 12:06:43.010 ,7,1,0.,24.0,0.,24.0
1979-07-29 12:07:07.010 ,7,0,0.,24.0,0.,24.0
1979-07-29 12:07:31.010 ,6,1,0.,24.0,0.,24.0
1979-07-29 12:07:55.010 ,6,0,0.,24.0,0.,24.0
1979-07-29 12:08:19.010 ,5,1,0.,24.0,0.,24.0
1979-07-29 12:08:43.010 ,5,0,0.,24.0,0.,24.0
1979-07-29 12:09:07.010 ,4,1,0.,24.0,0.,24.0
1979-07-29 12:09:31.010 ,4,0,0.,24.0,0.,24.0
1979-07-29 12:09:55.010 ,3,1,0.,24.0,0.,24.0
1979-07-29 12:10:19.010 ,3,0,0.,24.0,0.,24.0
1979-07-29 12:10:43.010 ,2,1,0.,24.0,0.,24.0
1979-07-29 12:11:07.010 ,2,0,0.,24.0,0.,24.0
1979-07-29 12:11:31.010 ,1,1,0.,24.0,0.,24.0
1979-07-29 12:11:55.010 ,1,0,0.,24.0,0.,24.0
1979-07-29 12:12:19.010 ,0,1,0.,24.0,0.,24.0
1979-07-29 12:12:43.010 ,0,0,0.,24.0,0.,24.0
1979-07-29 12:13:07.010 ,0,1,0.,24.0,0.,24.0
1979-07-29 12:13:31.010 ,0,0,0.,24.0,0.,24.0
1979-07-29 12:13:55.010 ,1,1,0.,24.0,0.,24.0
1979-07-29 12:14:19.010 ,1,0,0.,24.0,0.,24.0
1979-07-29 12:14:43.010 ,2,1,0.,24.0,0.,24.0
1979-07-29 12:15:07.010 ,2,0,0.,24.0,0.,24.0
1979-07-29 12:15:31.010 ,3,1,0.,24.0,0.,24.0
1979-07-29 12:15:55.010 ,0,0,,0,,0
1979-07-29 12:16:19.010 ,4,1,0.,24.0,0.,24.0
1979-07-29 12:16:43.010 ,4,0,0.,24.0,0.,24.0
1979-07-29 12:17:07.010 ,5,1,0.,24.0,0.,24.0
1979-07-29 12:17:31.010 ,5,0,0.,24.0,0.,24.0
1979-07-29 12:17:55.010 ,6,1,0.,24.0,0.,24.0
1979-07-29 12:18:19.010 ,6,0,0.,24.0,0.,24.0
1979-07-29 12:18:43.010 ,7,0,0.,24.0,0.,24.0
1979-07-29 12:19:07.010 ,7,0,0.,24.0,0.,24.0
1979-07-29 12:19:31.010 ,3,1,0.,24.0,0.,24.0
1979-07-29 12:19:55.010 ,0,1,0.,24.0,0.,24.0
1979-07-29 12:20:19.010 ,4,1,0.,24.0,0.,24.0
1979-07-29 12:20:43.010 ,7,1,0.,24.0,0.,24.0
1979-07-29 12:21:07.010 ,3,1,0.,24.0,0.,24.0
1979-07-29 12:21:31.010 ,0,1,0.,24.0,0.,24.0
1979-07-29 12:21:55.010 ,4,1,0.,24.0,0.,24.0
1979-07-29 12:22:19.010 ,7,1,0.,24.0,0.,24.0
1979-07-29 12:22:43.010 ,3,1,0.,24.0,0.,24.0
1979-07-29 12:23:07.010 ,0,1,0.,24.0,0.,24.0
1979-07-29 12:23:31.010 ,4,1,0.,24.0,0.,24.0
1979-07-29 12:23:55.010 ,7,1,0.,24.0,0.,24.0
1979-07-29 12:24:43.010 ,0,1,0.,24.0,0.,24.0
1979-07-29 12:25:07.010 ,4,1,0.,24.0,0.,24.0
1979-07-29 12:25:31.010 ,7,1,0.,24.0,0.,24.0
1979-07-29 12:25:55.010 ,3,1,0.,24.0,0.,24.0
1979-07-29 12:26:19.010 ,0,1,0.,24.0,0.,24.0
1979-07-29 12:26:43.010 ,4,1,0.,24.0,0.,24.0
1979-07-29 12:27:07.010 ,7,1,0.,24.0,0.,24.0
1979-07-29 12:27:31.010 ,3,1,0.,24.0,0.,24.0
1979-07-29 12:27:55.010 ,0,1,0.,24.0,0.,24.0
1979-07-29 12:28:19.010 ,4,1,0.,24.0,0.,24.0
1979-07-29 12:28:43.010 ,7,1,0.,24.0,0.,24.0
1979-07-29 12:29:07.010 ,3,1,0.,24.0,0.,24.0
1979-07-29 12:29:31.010 ,0,1,0.,24.0,0.,24.0
1979-07-29 12:29:55.010 ,0,0,0.,24.0,0.,24.0
1979-07-29 12:30:19.010 ,0,0,0.,24.0,0.,24.0
1979-07-29 12:30:43.010 ,5,1,0.,24.0,0.,24.0
1979-07-29 12:31:07.010 ,5,0,0.,24.0,0.,24.0
1979-07-29 12:31:31.010 ,4,1,0.,24.0,0.,24.0
1979-07-29 12:31:55.010 ,4,0,0.,24.0,0.,24.0
1979-07-29 12:32:19.010 ,3,1,0.,24.0,0.,24.0
1979-07-29 12:32:43.010 ,3,0,0.,24.0,0.,24.0
1979-07-29 12:33:07.010 ,2,1,0.,24.0,0.,24.0
1979-07-29 12:33:31.010 ,2,0,0.,24.0,0.,24.0
1979-07-29 12:33:55.010 ,1,1,0.,24.0,0.,24.0
1979-07-29 12:34:19.010 ,1,0,0.,24.0,0.,24.0
1979-07-29 12:34:43.010 ,0,1,0.,24.0,0.,24.0
1979-07-29 12:35:07.010 ,0,0,0.,24.0,0.,24.0
1979-07-29 12:35:31.010 ,0,1,0.,24.0,0.,24.0
1979-07-29 12:35:55.010 ,0,0,0.,24.0,0.,24.0
1979-07-29 12:36:19.010 ,1,1,0.,24.0,0.,24.0
1979-07-29 12:36:43.010 ,1,0,0.,24.0,0.,24.0
1979-07-29 12:37:07.010 ,2,1,0.,24.0,0.,24.0
1979-07-29 12:37:31.010 ,2,0,0.,24.0,0.,24.0
1979-07-29 12:37:55.010 ,3,1,0.,24.0,0.,24.0
1979-07-29 12:38:19.010 ,3,0,0.,24.0,0.,24.0
1979-07-29 12:38:43.010 ,4,1,0.,24.0,0.,24.0
1979-07-29 12:39:07.010 ,4,0,0.,24.0,0.,24.0
1979-07-29 12:39:31.010 ,5,1,0.,24.0,0.,24.0
1979-07-29 12:39:55.010 ,5,0,0.,24.0,0.,24.0
1979-07-29 12:40:19.010 ,6,1,0.,24.0,0.,24.0
1979-07-29 12:40:43.010 ,6,0,0.,24.0,0.,24.0
1979-07-29 12:41:07.010 ,7,1,0.,24.0,0.,24.0
1979-07-29 12:41:31.010 ,7,0,0.,24.0,0.,24.0
1979-07-29 12:41:55.010 ,7,1,0.,24.0,0.,24.0
1979-07-29 12:42:19.010 ,7,0,0.,24.0,0.,24.0
1979-07-29 12:42:43.010 ,6,1,0.,24.0,0.,24.0
1979-07-29 12:43:07.010 ,6,0,0.,24.0,0.,24.0
1979-07-29 12:43:31.010 ,5,1,0.,24.0,0.,24.0
1979-07-29 12:43:55.010 ,5,0,0.,24.0,0.,24.0
1979-07-29 12:44:19.010 ,4,1,0.,24.0,0.,24.0
1979-07-29 12:44:43.010 ,4,0,0.,24.0,0.,24.0
1979-07-29 12:45:07.010 ,3,1,0.,24.0,0.,24.0
1979-07-29 12:45:31.010 ,3,0,0.,24.0,0.,24.0
1979-07-29 12:45:55.010 ,2,1,0.,24.0,0.,24.0
1979-07-29 12:46:19.010 ,2,0,0.,24.0,0.,24.0
1979-07-29 12:46:43.010 ,1,1,0.,24.0,0.,24.0
1979-07-29 12:47:07.010 ,1,0,0.,24.0,0.,24.0
1979-07-29 12:47:31.010 ,0,1,0.,24.0,0.,24.0
1979-07-29 12:47:55.010 ,0,0,0.,24.0,0.,24.0
1979-07-29 12:48:19.010 ,0,1,0.,24.0,0.,24.0
1979-07-29 12:48:43.010 ,0,0,0.,24.0,0.,24.0
1979-07-29 12:49:07.010 ,1,1,0.,24.0,0.,24.0
1979-07-29 12:49:31.010 ,1,0,0.,24.0,0.,24.0
1979-07-29 12:49:55.010 ,2,1,0.,24.0,0.,24.0
1979-07-29 12:50:19.010 ,2,0,0.,24.0,0.,24.0
1979-07-29 12:50:43.010 ,3,1,0.,24.0,0.,24.0
1979-07-29 12:51:07.010 ,3,0,0.,24.0,0.,24.0
1979-07-29 12:51:31.010 ,4,1,0.,24.0,0.,24.0
1979-07-29 12:51:55.010 ,4,0,0.,24.0,0.,24.0
1979-07-29 12:52:19.010 ,5,1,0.,24.0,0.,24.0
1979-07-29 12:52:43.010 ,5,0,0.,24.0,0.,24.0
1979-07-29 12:53:07.010 ,6,1,0.,24.0,0.,24.0
1979-07-29 12:53:31.010 ,6,0,0.,24.0,0.,24.0
1979-07-29 12:53:55.010 ,7,1,0.,24.0,0.,24.0
1979-07-29 12:54:19.010 ,7,0,0.,24.0,0.,24.0
1979-07-29 12:54:43.010 ,7,1,0.,24.0,0.,24.0
1979-07-29 12:55:07.010 ,7,0,0.,24.0,0.,24.0
1979-07-29 12:55:31.010 ,6,1,0.,24.0,0.,24.0
1979-07-29 12:55:55.010 ,6,0,0.,24.0,0.,24.0
1979-07-29 12:56:19.010 ,5,1,0.,24.0,0.,24.0
1979-07-29 12:56:43.010 ,5,0,0.,24.0,0.,24.0
1979-07-29 12:57:07.010 ,4,1,0.,24.0,0.,24.0
1979-07-29 12:57:31.010 ,4,0,0.,24.0,0.,24.0
1979-07-29 12:57:55.010 ,3,1,1.,24.0,0.,24.0
1979-07-29 12:58:19.010 ,3,0,0.,24.0,0.,24.0
1979-07-29 12:58:43.010 ,2,1,0.,24.0,0.,24.0
1979-07-29 12:59:07.010 ,2,0,0.,24.0,0.,24.0
1979-07-29 12:59:31.010 ,1,1,0.,24.0,0.,24.0
1979-07-29 12:59:55.010 ,1,0,0.,24.0,0.,24.0
1979-07-29 13:00:19.010 ,0,1,0.,24.0,0.,24.0
1979-07-29 13:00:43.010 ,0,0,0.,24.0,0.,24.0
1979-07-29 13:01:07.010 ,0,1,0.,24.0,0.,24.0
1979-07-29 13:01:31.010 ,0,0,0.,24.0,0.,24.0
1979-07-29 13:01:55.010 ,1,1,0.,24.0,0.,24.0
1979-07-29 13:02:19.010 ,1,0,0.,24.0,0.,24.0
1979-07-29 13:02:43.010 ,2,1,0.,24.0,0.,24.0
1979-07-29 13:03:07.010 ,2,0,0.,24.0,0.,24.0
1979-07-29 13:03:31.010 ,3,1,0.,24.0,0.,24.0
1979-07-29 13:03:55.010 ,3,0,0.,24.0,0.,24.0
1979-07-29 13:04:19.010 ,4,1,0.,24.0,0.,24.0
1979-07-29 13:04:43.010 ,4,0,0.,24.0,0.,24.0
1979-07-29 13:05:07.010 ,5,1,0.,24.0,0.,24.0
1979-07-29 13:05:31.010 ,5,0,0.,24.0,0.,24.0
1979-07-29 13:05:55.010 ,6,1,0.,24.0,0.,24.0
1979-07-29 13:06:19.010 ,6,0,0.,24.0,0.,24.0
1979-07-29 13:06:43.010 ,7,0,0.,24.0,0.,24.0
1979-07-29 13:07:07.010 ,7,0,0.,24.0,0.,24.0
1979-07-29 13:07:31.010 ,3,1,0.,24.0,0.,24.0
1979-07-29 13:07:55.010 ,0,1,0.,24.0,0.,24.0
1979-07-29 13:08:19.010 ,4,1,0.,24.0,0.,24.0
1979-07-29 13:08:43.010 ,7,1,0.,24.0,0.,24.0
1979-07-29 13:09:07.010 ,3,1,0.,24.0,0.,24.0
1979-07-29 13:09:31.010 ,0,1,0.,24.0,0.,24.0
1979-07-29 13:09:55.010 ,4,1,0.,24.0,0.,24.0
1979-07-29 13:10:19.010 ,7,1,0.,24.0,0.,24.0
1979-07-29 13:10:43.010 ,3,1,0.,24.0,0.,24.0
1979-07-29 13:11:07.010 ,0,1,0.,24.0,0.,24.0
1979-07-29 13:11:31.010 ,4,1,0.,24.0,0.,24.0
1979-07-29 13:11:55.010 ,7,1,0.,24.0,0.,24.0
1979-07-29 13:12:19.010 ,3,1,0.,24.0,0.,24.0
1979-07-29 13:12:43.010 ,0,1,0.,24.0,0.,24.0
1979-07-29 13:13:07.010 ,4,1,0.,24.0,0.,24.0
1979-07-29 13:13:31.010 ,7,1,0.,24.0,0.,24.0
1979-07-29 13:13:55.010 ,3,1,0.,24.0,0.,24.0
1979-07-29 13:14:19.010 ,0,1,0.,24.0,0.,24.0
1979-07-29 13:14:43.010 ,4,1,1.,24.0,0.,24.0
1979-07-29 13:15:07.010 ,7,1,1.,24.0,0.,24.0
1979-07-29 13:15:31.010 ,3,1,0.,24.0,0.,24.0
1979-07-29 13:15:55.010 ,0,1,0.,24.0,0.,24.0
1979-07-29 13:16:19.010 ,4,1,0.,24.0,0.,24.0
1979-07-29 13:16:43.010 ,7,1,0.,24.0,0.,24.0
1979-07-29 13:17:07.010 ,3,1,0.,24.0,0.,24.0
1979-07-29 13:17:31.010 ,0,1,0.,24.0,0.,24.0
1979-07-29 13:17:55.010 ,0,0,0.,24.0,0.,24.0
1979-07-29 13:18:19.010 ,0,0,0.,24.0,0.,24.0
1979-07-29 13:18:43.010 ,5,1,0.,24.0,0.,24.0
1979-07-29 13:19:07.010 ,5,0,0.,24.0,0.,24.0
1979-07-29 13:19:31.010 ,4,1,0.,24.0,0.,24.0
1979-07-29 13:19:55.010 ,4,0,0.,24.0,0.,24.0
1979-07-29 13:20:19.010 ,3,1,0.,24.0,0.,24.0
1979-07-29 13:20:43.010 ,3,0,0.,24.0,0.,24.0
1979-07-29 13:21:07.010 ,2,1,1.,24.0,0.,24.0
1979-07-29 13:21:31.010 ,2,0,0.,24.0,0.,24.0
1979-07-29 13:21:55.010 ,1,1,0.,24.0,0.,24.0
1979-07-29 13:22:19.010 ,1,0,0.,24.0,0.,24.0
1979-07-29 13:22:43.010 ,0,1,0.,24.0,0.,24.0
1979-07-29 13:23:07.010 ,0,0,0.,24.0,0.,24.0
1979-07-29 13:23:31.010 ,0,1,0.,24.0,0.,24.0
1979-07-29 13:23:55.010 ,0,0,0.,24.0,0.,24.0
1979-07-29 13:24:19.010 ,1,1,0.,24.0,0.,24.0
1979-07-29 13:24:43.010 ,1,0,0.,24.0,0.,24.0
1979-07-29 13:25:07.010 ,2,1,0.,24.0,0.,24.0
1979-07-29 13:25:31.010 ,2,0,0.,24.0,0.,24.0
1979-07-29 13:25:55.010 ,3,1,0.,24.0,0.,24.0
1979-07-29 13:26:19.010 ,3,0,0.,24.0,0.,24.0
1979-07-29 13:26:43.010 ,4,1,0.,24.0,0.,24.0
1979-07-29 13:27:07.010 ,4,0,0.,24.0,0.,24.0
1979-07-29 13:28:19.010 ,0,0,0.,24.0,0.,24.0
1979-07-29 13:28:43.010 ,0,0,0.,24.0,0.,24.0
1979-07-29 13:29:07.010 ,7,1,0.,24.0,0.,24.0
1979-07-29 13:29:31.010 ,7,0,0.,24.0,0.,24.0
1979-07-29 13:29:55.010 ,7,1,0.,24.0,0.,24.0
1979-07-29 13:30:19.010 ,7,0,0.,24.0,0.,24.0
1979-07-29 13:30:43.010 ,6,1,0.,24.0,0.,24.0
1979-07-29 13:31:07.010 ,6,0,0.,24.0,0.,24.0
1979-07-29 13:31:31.010 ,5,1,0.,24.0,0.,24.0
1979-07-29 13:31:55.010 ,5,0,0.,24.0,0.,24.0
1979-07-29 13:32:19.010 ,4,1,0.,24.0,0.,24.0
1979-07-29 13:32:43.010 ,4,0,0.,24.0,0.,24.0
1979-07-29 13:33:07.010 ,3,1,0.,24.0,0.,24.0
1979-07-29 13:33:31.010 ,3,0,0.,24.0,0.,24.0
1979-07-29 13:33:55.010 ,2,1,0.,24.0,0.,24.0
1979-07-29 13:34:19.010 ,2,0,0.,24.0,0.,24.0
1979-07-29 13:34:43.010 ,1,1,0.,24.0,0.,24.0
1979-07-29 13:35:07.010 ,1,0,0.,24.0,0.,24.0
1979-07-29 13:35:31.010 ,0,1,0.,24.0,0.,24.0
1979-07-29 13:35:55.010 ,0,0,0.,24.0,0.,24.0
1979-07-29 13:36:19.010 ,0,1,0.,24.0,0.,24.0
1979-07-29 13:36:43.010 ,0,0,0.,24.0,0.,24.0
1979-07-29 13:37:07.010 ,1,1,0.,24.0,0.,24.0
1979-07-29 13:37:31.010 ,1,0,0.,24.0,0.,24.0
1979-07-29 13:37:55.010 ,2,1,0.,24.0,0.,24.0
1979-07-29 13:38:19.010 ,2,0,0.,24.0,0.,24.0
1979-07-29 13:38:43.010 ,3,1,0.,24.0,0.,24.0
1979-07-29 13:39:07.010 ,3,0,0.,24.0,0.,24.0
1979-07-29 13:39:31.010 ,4,1,0.,24.0,0.,24.0
1979-07-29 13:39:55.010 ,4,0,0.,24.0,0.,24.0
1979-07-29 13:40:19.010 ,5,1,0.,24.0,0.,24.0
1979-07-29 13:40:43.010 ,5,0,0.,24.0,0.,24.0
1979-07-29 13:41:07.010 ,6,1,0.,24.0,0.,24.0
1979-07-29 13:41:31.010 ,6,0,0.,24.0,0.,24.0
1979-07-29 13:41:55.010 ,7,1,0.,24.0,0.,24.0
1979-07-29 13:42:19.010 ,7,0,0.,24.0,0.,24.0
1979-07-29 13:42:43.010 ,7,1,0.,24.0,0.,24.0
1979-07-29 13:43:07.010 ,7,0,0.,24.0,0.,24.0
1979-07-29 13:43:31.010 ,6,1,0.,24.0,0.,24.0
1979-07-29 13:44:19.010 ,5,1,0.,24.0,0.,24.0
1979-07-29 13:44:43.010 ,5,0,0.,24.0,0.,24.0
1979-07-29 13:45:07.010 ,4,1,0.,24.0,0.,24.0
1979-07-29 13:45:31.010 ,4,0,0.,24.0,0.,24.0
1979-07-29 13:45:55.010 ,3,1,0.,24.0,0.,24.0
1979-07-29 13:46:19.010 ,3,0,0.,24.0,0.,24.0
1979-07-29 13:46:43.010 ,2,1,0.,24.0,0.,24.0
1979-07-29 13:47:07.010 ,2,0,0.,24.0,0.,24.0
1979-07-29 13:47:31.010 ,1,1,0.,24.0,0.,24.0
1979-07-29 13:47:55.010 ,1,0,0.,24.0,0.,24.0
1979-07-29 13:48:19.010 ,0,1,0.,24.0,0.,24.0
1979-07-29 13:48:43.010 ,0,0,0.,24.0,0.,24.0
1979-07-29 13:49:07.010 ,0,1,0.,24.0,0.,24.0
1979-07-29 13:49:31.010 ,0,0,0.,24.0,0.,24.0
1979-07-29 13:49:55.010 ,1,1,0.,24.0,0.,24.0
1979-07-29 13:50:19.010 ,1,0,0.,24.0,0.,24.0
1979-07-29 13:50:43.010 ,2,1,0.,24.0,0.,24.0
1979-07-29 13:51:07.010 ,2,0,0.,24.0,0.,24.0
1979-07-29 13:51:31.010 ,3,1,0.,24.0,0.,24.0
1979-07-29 13:51:55.010 ,3,0,1.,24.0,0.,24.0
1979-07-29 13:52:19.010 ,4,1,0.,24.0,0.,24.0
1979-07-29 13:52:43.010 ,4,0,0.,24.0,0.,24.0
1979-07-29 13:53:07.010 ,5,1,0.,24.0,0.,24.0
1979-07-29 13:53:31.010 ,5,0,0.,24.0,0.,24.0
1979-07-29 13:53:55.010 ,6,1,0.,24.0,0.,24.0
1979-07-29 13:54:19.010 ,6,0,0.,24.0,0.,24.0
1979-07-29 13:54:43.000 ,7,0,0.,24.0,0.,24.0
1979-07-29 13:55:07.000 ,7,0,0.,24.0,0.,24.0
1979-07-29 13:55:31.000 ,3,1,0.,24.0,0.,24.0
1979-07-29 13:55:55.000 ,0,1,0.,24.0,0.,24.0
1979-07-29 13:56:19.000 ,4,1,0.,24.0,0.,24.0
1979-07-29 13:56:43.000 ,7,1,0.,24.0,0.,24.0
1979-07-29 13:57:07.000 ,3,1,0.,24.0,0.,24.0
1979-07-29 13:57:31.000 ,0,1,0.,24.0,0.,24.0
1979-07-29 13:57:55.000 ,4,1,0.,24.0,0.,24.0
1979-07-29 13:58:19.000 ,7,1,0.,24.0,0.,24.0
1979-07-29 13:58:43.000 ,3,1,0.,24.0,0.,24.0
1979-07-29 13:59:07.000 ,0,1,0.,24.0,0.,24.0
1979-07-29 13:59:31.000 ,4,1,0.,24.0,0.,24.0
1979-07-29 13:59:55.000 ,7,1,0.,24.0,0.,24.0
1979-07-29 14:00:19.000 ,3,1,0.,24.0,0.,24.0
1979-07-29 14:00:43.010 ,0,1,0.,24.0,0.,24.0
1979-07-29 14:01:31.010 ,7,1,0.,24.0,0.,24.0
1979-07-29 14:01:55.010 ,3,1,0.,24.0,0.,24.0
1979-07-29 14:02:19.010 ,0,1,0.,24.0,0.,24.0
1979-07-29 14:02:43.010 ,4,1,0.,24.0,0.,24.0
1979-07-29 14:03:07.010 ,7,1,0.,24.0,0.,24.0
1979-07-29 14:03:31.010 ,3,1,0.,24.0,0.,24.0
1979-07-29 14:03:55.010 ,0,1,0.,24.0,0.,24.0
1979-07-29 14:04:43.010 ,7,1,0.,24.0,0.,24.0
1979-07-29 14:05:07.010 ,3,1,0.,24.0,0.,24.0
1979-07-29 14:05:31.010 ,0,1,0.,24.0,0.,24.0
1979-07-29 14:05:55.010 ,0,0,0.,24.0,0.,24.0
1979-07-29 14:06:19.010 ,0,0,0.,24.0,0.,24.0
1979-07-29 14:06:43.010 ,5,1,0.,24.0,0.,24.0
1979-07-29 14:07:07.010 ,5,0,0.,24.0,0.,24.0
1979-07-29 14:07:31.010 ,4,1,0.,24.0,0.,24.0
1979-07-29 14:07:55.010 ,4,0,0.,24.0,0.,24.0
1979-07-29 14:08:19.010 ,3,1,0.,24.0,0.,24.0
1979-07-29 14:08:43.010 ,3,0,0.,24.0,0.,24.0
1979-07-29 14:09:07.010 ,2,1,0.,24.0,0.,24.0
1979-07-29 14:09:31.010 ,2,0,0.,24.0,0.,24.0
1979-07-29 14:09:55.010 ,1,1,0.,24.0,0.,24.0
1979-07-29 14:10:19.010 ,1,0,0.,24.0,0.,24.0
1979-07-29 14:11:07.010 ,0,0,0.,24.0,0.,24.0
1979-07-29 14:11:31.010 ,0,1,0.,24.0,0.,24.0
1979-07-29 14:11:55.010 ,0,0,0.,24.0,0.,24.0
1979-07-29 14:12:19.010 ,1,1,0.,24.0,0.,24.0
1979-07-29 14:12:43.010 ,1,0,0.,24.0,0.,24.0
1979-07-29 14:13:07.010 ,2,1,0.,24.0,0.,24.0
1979-07-29 14:13:31.010 ,2,0,0.,24.0,0.,24.0
1979-07-29 14:14:19.010 ,3,0,0.,24.0,0.,24.0
1979-07-29 14:14:43.000 ,4,1,0.,24.0,0.,24.0
1979-07-29 14:15:07.000 ,4,0,0.,24.0,0.,24.0
1979-07-29 14:15:31.000 ,5,1,0.,24.0,0.,24.0
1979-07-29 14:15:55.000 ,5,0,0.,24.0,0.,24.0
1979-07-29 14:16:19.000 ,6,1,0.,24.0,0.,24.0
1979-07-29 14:16:43.000 ,6,0,0.,24.0,0.,24.0
1979-07-29 14:17:07.000 ,7,1,0.,24.0,0.,24.0
1979-07-29 14:17:31.000 ,7,0,0.,24.0,0.,24.0
1979-07-29 14:17:55.000 ,7,1,0.,24.0,0.,24.0
1979-07-29 14:18:19.000 ,7,0,0.,24.0,0.,24.0
1979-07-29 14:18:43.000 ,6,1,0.,24.0,0.,24.0
1979-07-29 14:19:07.000 ,6,0,0.,24.0,0.,24.0
1979-07-29 14:19:31.000 ,5,1,0.,24.0,0.,24.0
1979-07-29 14:19:55.000 ,5,0,0.,24.0,0.,24.0
1979-07-29 14:20:19.000 ,4,1,0.,24.0,0.,24.0
1979-07-29 14:20:43.000 ,4,0,0.,24.0,0.,24.0
1979-07-29 14:21:07.000 ,3,1,0.,24.0,0.,24.0
1979-07-29 14:21:31.000 ,3,0,0.,24.0,0.,24.0
1979-07-29 14:21:55.000 ,2,1,0.,24.0,0.,24.0
1979-07-29 14:22:19.000 ,2,0,1.,24.0,0.,24.0
1979-07-29 14:22:43.000 ,1,1,0.,24.0,0.,24.0
1979-07-29 14:23:07.000 ,1,0,0.,24.0,0.,24.0
1979-07-29 14:23:31.000 ,0,1,0.,24.0,0.,24.0
1979-07-29 14:23:55.000 ,0,0,0.,24.0,0.,24.0
1979-07-29 14:24:19.000 ,0,1,0.,24.0,0.,24.0
1979-07-29 14:24:43.000 ,0,0,0.,24.0,0.,24.0
1979-07-29 14:25:07.000 ,1,1,0.,24.0,0.,24.0
1979-07-29 14:25:55.000 ,2,1,0.,24.0,0.,24.0
1979-07-29 14:26:19.000 ,2,0,0.,24.0,0.,24.0
1979-07-29 14:26:43.000 ,3,1,0.,24.0,0.,24.0
1979-07-29 14:27:07.000 ,3,0,0.,24.0,0.,24.0
1979-07-29 14:27:31.000 ,4,1,0.,24.0,0.,24.0
1979-07-29 14:27:55.000 ,4,0,0.,24.0,0.,24.0
1979-07-29 14:28:19.000 ,5,1,0.,24.0,0.,24.0
1979-07-29 14:28:43.000 ,5,0,0.,24.0,0.,24.0
1979-07-29 14:29:31.000 ,6,0,0.,24.0,0.,24.0
1979-07-29 14:30:19.000 ,7,0,0.,24.0,0.,24.0
1979-07-29 14:30:43.000 ,7,1,0.,24.0,0.,24.0
1979-07-29 14:31:07.000 ,7,0,0.,24.0,0.,24.0
1979-07-29 14:31:31.000 ,6,1,0.,24.0,0.,24.0
1979-07-29 14:31:55.000 ,6,0,0.,24.0,0.,24.0
1979-07-29 14:32:19.000 ,5,1,0.,24.0,0.,24.0
1979-07-29 14:32:43.000 ,5,0,0.,24.0,0.,24.0
1979-07-29 14:33:07.000 ,4,1,0.,24.0,0.,24.0
1979-07-29 14:33:31.000 ,4,0,0.,24.0,0.,24.0
1979-07-29 14:33:55.000 ,3,1,0.,24.0,0.,24.0
1979-07-29 14:34:19.000 ,3,0,0.,24.0,0.,24.0
1979-07-29 14:34:43.000 ,2,1,0.,24.0,0.,24.0
1979-07-29 14:35:07.000 ,2,0,0.,24.0,0.,24.0
1979-07-29 14:35:31.000 ,1,1,0.,24.0,0.,24.0
1979-07-29 14:35:55.000 ,1,0,0.,24.0,0.,24.0
1979-07-29 14:36:19.000 ,0,1,0.,24.0,0.,24.0
1979-07-29 14:36:43.000 ,0,0,0.,24.0,1.,24.0
1979-07-29 14:37:07.000 ,0,1,0.,24.0,0.,24.0
1979-07-29 14:37:31.000 ,0,0,0.,24.0,0.,24.0
1979-07-29 14:37:55.000 ,1,1,0.,24.0,0.,24.0
1979-07-29 14:38:19.000 ,1,0,0.,24.0,0.,24.0
1979-07-29 14:38:43.000 ,2,1,0.,24.0,0.,24.0
1979-07-29 14:39:07.000 ,2,0,0.,24.0,0.,24.0
1979-07-29 14:39:55.000 ,3,0,0.,24.0,0.,24.0
1979-07-29 14:40:19.000 ,4,1,0.,24.0,0.,24.0
1979-07-29 14:40:43.000 ,4,0,0.,24.0,0.,24.0
1979-07-29 14:41:07.000 ,5,1,0.,24.0,0.,24.0
1979-07-29 14:41:31.000 ,5,0,0.,24.0,0.,24.0
1979-07-29 14:41:55.000 ,6,1,0.,24.0,0.,24.0
1979-07-29 14:42:19.000 ,6,0,0.,24.0,0.,24.0
1979-07-29 14:42:43.000 ,7,0,0.,24.0,0.,24.0
1979-07-29 14:43:07.000 ,7,0,0.,24.0,0.,24.0
1979-07-29 14:43:31.000 ,3,1,0.,24.0,0.,24.0
1979-07-29 14:43:55.000 ,0,1,0.,24.0,0.,24.0
1979-07-29 14:45:07.000 ,3,1,0.,24.0,0.,24.0
1979-07-29 14:45:31.000 ,0,1,0.,24.0,0.,24.0
1979-07-29 14:48:19.000 ,0,0,0.,24.0,0.,24.0
1979-07-29 14:48:43.000 ,0,1,0.,24.0,0.,24.0
1979-07-29 14:49:07.000 ,4,1,0.,24.0,0.,24.0
1979-07-29 14:49:31.000 ,7,1,0.,24.0,0.,24.0
1979-07-29 14:49:55.000 ,3,1,0.,24.0,0.,24.0
1979-07-29 14:50:19.000 ,0,1,0.,24.0,0.,24.0
1979-07-29 14:50:19.000 ,0,1,0.,24.0,0.,24.0
1979-07-29 14:50:43.000 ,4,1,0.,24.0,0.,24.0
1979-07-29 14:51:55.000 ,0,1,0.,24.0,0.,24.0
1979-07-29 14:52:19.000 ,4,1,0.,24.0,0.,24.0
1979-07-29 14:52:43.000 ,7,1,0.,24.0,0.,24.0
1979-07-29 14:53:07.000 ,3,1,0.,24.0,0.,24.0
1979-07-29 14:53:31.000 ,0,1,0.,24.0,0.,24.0
1979-07-29 14:53:55.000 ,0,0,0.,24.0,0.,24.0
1979-07-29 14:54:19.000 ,0,0,0.,24.0,0.,24.0
1979-07-29 14:54:43.000 ,5,1,0.,24.0,0.,24.0
1979-07-29 14:55:07.000 ,5,0,0.,24.0,0.,24.0
1979-07-29 14:56:19.000 ,3,1,0.,24.0,0.,24.0
1979-07-29 14:56:43.000 ,3,0,0.,24.0,0.,24.0
1979-07-29 14:57:07.000 ,2,1,0.,24.0,0.,24.0
1979-07-29 14:57:31.000 ,2,0,0.,24.0,0.,24.0
1979-07-29 14:58:19.000 ,1,0,0.,24.0,0.,24.0
1979-07-29 14:58:43.000 ,0,1,0.,24.0,0.,24.0
1979-07-29 14:59:07.000 ,0,0,0.,24.0,0.,24.0
1979-07-29 14:59:31.000 ,0,1,0.,24.0,0.,24.0
1979-07-29 14:59:55.000 ,0,0,0.,24.0,0.,24.0
1979-07-29 15:00:19.000 ,1,1,0.,24.0,0.,24.0
